Location: El Gallo
(32.4380°N, 116.9347°W)
Time: 13:14:18
(UTC+00:00)

Cosmos 1869 Rocket - Visible Passes

Search period start: 27 March 2023 00:00
Search period end: 06 April 2023 00:00
Orbit: 603 x 632 km, 82.5° (Epoch: 27 March)

Date Brightness Start Highest point End Pass type
(mag) Time Alt. Az. Time Alt. Az. Time Alt. Az.
27 Mar 4.0 02:22:31 10° SSE 02:26:29 36° E 02:30:27 10° NNE visible
27 Mar 6.8 04:02:20 10° WSW 04:04:26 13° WNW 04:06:31 10° NW visible
28 Mar 3.4 02:38:59 10° S 02:43:16 77° E 02:47:36 10° N visible
28 Mar 7.1 12:54:04 10° NE 12:56:07 13° ENE 12:58:11 10° ESE visible
29 Mar 4.5 02:55:58 10° SSW 03:00:09 50° W 03:04:22 10° N visible
29 Mar 6.4 13:09:32 10° NNE 13:13:12 25° ENE 13:16:51 10° SE visible
30 Mar 6.0 03:13:33 10° SW 03:17:07 25° WNW 03:20:43 10° NNW visible
31 Mar 7.0 03:32:07 10° WSW 03:34:11 13° WNW 03:36:15 10° NW visible
01 Apr 7.2 12:23:46 10° NE 12:25:53 13° ENE 12:28:01 10° ESE visible
02 Apr 4.7 02:25:42 10° SSW 02:29:53 50° W 02:34:07 10° N visible
02 Apr 6.2 12:39:15 10° NNE 12:42:57 25° ENE 12:46:38 10° SE visible
03 Apr 6.2 02:43:17 10° SW 02:46:51 25° WNW 02:50:27 10° NNW visible
03 Apr 4.8 12:55:35 10° N 12:59:55 49° E 13:04:14 10° SSE visible
04 Apr 7.1 03:01:52 10° WSW 03:03:54 13° WNW 03:05:57 10° NW visible
05 Apr 7.0 11:53:27 10° NE 11:55:37 13° ENE 11:57:48 10° ESE visible
